• In Uzbekistan
  • List of Countries
  • For 7 days
  • Water Temperature
  • Weather Map
  • Weather Widgets
  • user-avatar
    Login

    Hourly Weather Kunming

    Today, 22 August, Thursday

    Time Temperature Precipitation Wind Pressure Humidity
    00:00 +18°C° 0 mm 1 mps 590 mmHg 87%
    01:00 +18°C° 0 mm 1 mps 590 mmHg 88%
    02:00 +18°C° 0.1 mm 1 mps 590 mmHg 88%
    03:00 +18°C° 0.1 mm 1 mps 590 mmHg 89%
    04:00 +16°C° 0.1 mm 0 mps 590 mmHg 90%
    05:00 +18°C° 0.1 mm 1 mps 590 mmHg 89%
    06:00 +18°C° 0.1 mm 1 mps 591 mmHg 88%
    07:00 +17°C° 0 mm 0 mps 591 mmHg 88%
    08:00 +18°C° 0.7 mm 0 mps 592 mmHg 83%
    09:00 +19°C° 0.7 mm 0 mps 592 mmHg 77%
    10:00 +21°C° 0.7 mm 0 mps 593 mmHg 72%
    11:00 +21°C° 1 mm 0 mps 592 mmHg 71%
    12:00 +21°C° 1 mm 0 mps 592 mmHg 71%
    13:00 +22°C° 0 mm 0 mps 592 mmHg 67%
    14:00 +24°C° 0.7 mm 1 mps 592 mmHg 66%
    15:00 +24°C° 0.7 mm 1 mps 591 mmHg 66%
    16:00 +24°C° 0.7 mm 1 mps 591 mmHg 65%
    17:00 +22°C° 0.7 mm 1 mps 591 mmHg 72%
    18:00 +21°C° 0.7 mm 1 mps 590 mmHg 78%
    19:00 +20°C° 0.7 mm 1 mps 590 mmHg 84%
    20:00 +19°C° 0.5 mm 1 mps 590 mmHg 84%
    21:00 +19°C° 0.5 mm 1 mps 591 mmHg 85%
    22:00 +18°C° 0.5 mm 1 mps 592 mmHg 86%
    23:00 +18°C° 0.7 mm 1 mps 591 mmHg 87%

    Tomorrow, 23 August, Friday

    Time Temperature Precipitation Wind Pressure Humidity
    00:00 +18°C° 0.7 mm 1 mps 591 mmHg 87%
    01:00 +18°C° 0.7 mm 1 mps 591 mmHg 88%
    02:00 +16°C° 0.6 mm 1 mps 591 mmHg 89%
    03:00 +16°C° 0.6 mm 1 mps 591 mmHg 89%
    04:00 +15°C° 0.6 mm 1 mps 591 mmHg 90%
    05:00 +16°C° 0 mm 1 mps 591 mmHg 90%
    06:00 +16°C° 0 mm 1 mps 591 mmHg 89%
    07:00 +16°C° 0 mm 1 mps 592 mmHg 89%
    08:00 +19°C° 0 mm 1 mps 593 mmHg 79%
    09:00 +20°C° 0 mm 2 mps 594 mmHg 69%
    10:00 +23°C° 0 mm 2 mps 594 mmHg 58%
    11:00 +24°C° 0.1 mm 3 mps 594 mmHg 55%
    12:00 +25°C° 0.1 mm 3 mps 594 mmHg 52%
    13:00 +26°C° 0.1 mm 3 mps 594 mmHg 49%
    14:00 +26°C° 0.2 mm 3 mps 593 mmHg 51%
    15:00 +26°C° 0.2 mm 3 mps 593 mmHg 53%
    16:00 +25°C° 0.2 mm 2 mps 592 mmHg 55%
    17:00 +23°C° 0.1 mm 2 mps 592 mmHg 63%
    18:00 +21°C° 0.1 mm 2 mps 591 mmHg 70%
    19:00 +19°C° 0.1 mm 2 mps 591 mmHg 78%
    20:00 +18°C° 0 mm 2 mps 591 mmHg 80%
    21:00 +17°C° 0 mm 2 mps 592 mmHg 82%
    22:00 +17°C° 0 mm 2 mps 592 mmHg 85%
    23:00 +16°C° 0 mm 1 mps 592 mmHg 86%

    Day after tomorrow, 24 August, Saturday

    Time Temperature Precipitation Wind Pressure Humidity
    00:00 +16°C° 0 mm 1 mps 592 mmHg 87%
    01:00 +16°C° 0 mm 1 mps 591 mmHg 89%
    02:00 +15°C° 0 mm 1 mps 591 mmHg 90%
    03:00 +15°C° 0 mm 1 mps 591 mmHg 90%
    04:00 +15°C° 0 mm 1 mps 591 mmHg 91%
    05:00 +15°C° 0 mm 1 mps 591 mmHg 90%
    06:00 +16°C° 0 mm 1 mps 591 mmHg 88%
    07:00 +16°C° 0 mm 1 mps 592 mmHg 86%
    08:00 +20°C° 0 mm 1 mps 593 mmHg 76%
    09:00 +23°C° 0 mm 1 mps 594 mmHg 66%
    10:00 +25°C° 0 mm 1 mps 595 mmHg 56%
    11:00 +26°C° 0 mm 1 mps 595 mmHg 53%
    12:00 +27°C° 0 mm 1 mps 594 mmHg 50%
    13:00 +27°C° 0 mm 2 mps 594 mmHg 47%
    14:00 +27°C° 0.2 mm 2 mps 593 mmHg 51%
    15:00 +26°C° 0.2 mm 2 mps 592 mmHg 54%
    16:00 +26°C° 0.2 mm 3 mps 592 mmHg 58%
    17:00 +24°C° 0.2 mm 2 mps 591 mmHg 66%
    18:00 +21°C° 0.2 mm 2 mps 591 mmHg 74%
    19:00 +20°C° 0.2 mm 1 mps 590 mmHg 82%
    20:00 +20°C° 0 mm 1 mps 590 mmHg 84%
    21:00 +19°C° 0 mm 1 mps 591 mmHg 86%
    22:00 +18°C° 0 mm 1 mps 591 mmHg 88%
    23:00 +18°C° 0 mm 1 mps 591 mmHg 89%

    25 August, Sunday

    Time Temperature Precipitation Wind Pressure Humidity
    00:00 +18°C° 0 mm 1 mps 591 mmHg 90%
    01:00 +16°C° 0 mm 1 mps 591 mmHg 91%
    02:00 +16°C° 0 mm 1 mps 591 mmHg 91%
    03:00 +16°C° 0 mm 1 mps 590 mmHg 91%
    04:00 +15°C° 0 mm 1 mps 590 mmHg 92%
    05:00 +16°C° 0 mm 1 mps 590 mmHg 91%
    06:00 +15°C° 0 mm 0 mps 591 mmHg 89%
    07:00 +16°C° 0 mm 0 mps 591 mmHg 88%
    08:00 +19°C° 0 mm 0 mps 592 mmHg 77%
    09:00 +22°C° 0 mm 0 mps 594 mmHg 65%
    10:00 +24°C° 0 mm 0 mps 595 mmHg 54%
    11:00 +26°C° 0 mm 0 mps 595 mmHg 49%
    12:00 +27°C° 0 mm 0 mps 595 mmHg 43%
    13:00 +30°C° 0 mm 1 mps 594 mmHg 38%
    14:00 +29°C° 0 mm 1 mps 594 mmHg 40%
    15:00 +29°C° 0 mm 1 mps 593 mmHg 41%
    16:00 +28°C° 0 mm 2 mps 592 mmHg 42%
    17:00 +26°C° 0 mm 2 mps 591 mmHg 51%
    18:00 +24°C° 0 mm 2 mps 590 mmHg 60%
    19:00 +22°C° 0 mm 1 mps 590 mmHg 69%
    20:00 +21°C° 0 mm 1 mps 590 mmHg 72%
    21:00 +20°C° 0 mm 1 mps 590 mmHg 76%
    22:00 +19°C° 0 mm 1 mps 591 mmHg 79%
    23:00 +19°C° 0 mm 1 mps 590 mmHg 81%

    26 August, Monday

    Time Temperature Precipitation Wind Pressure Humidity
    00:00 +17°C° 0 mm 0 mps 590 mmHg 83%
    01:00 +16°C° 0 mm 0 mps 590 mmHg 85%
    02:00 +16°C° 0 mm 0 mps 589 mmHg 87%
    03:00 +16°C° 0 mm 0 mps 589 mmHg 88%
    04:00 +16°C° 0 mm 0 mps 589 mmHg 89%
    05:00 +16°C° 0 mm 0 mps 589 mmHg 87%
    06:00 +17°C° 0 mm 0 mps 590 mmHg 85%
    07:00 +17°C° 0 mm 0 mps 590 mmHg 83%
    08:00 +20°C° 0 mm 0 mps 591 mmHg 75%
    09:00 +24°C° 0 mm 1 mps 592 mmHg 66%
    10:00 +27°C° 0 mm 1 mps 593 mmHg 57%
    11:00 +27°C° 0.1 mm 1 mps 593 mmHg 54%
    12:00 +28°C° 0.1 mm 1 mps 592 mmHg 51%
    13:00 +29°C° 0.1 mm 1 mps 592 mmHg 48%
    14:00 +29°C° 0.2 mm 1 mps 591 mmHg 49%
    15:00 +28°C° 0.2 mm 1 mps 591 mmHg 51%
    16:00 +28°C° 0.2 mm 1 mps 590 mmHg 52%
    17:00 +26°C° 0.2 mm 1 mps 589 mmHg 60%
    18:00 +24°C° 0.2 mm 1 mps 589 mmHg 69%
    19:00 +22°C° 0.2 mm 1 mps 588 mmHg 78%
    20:00 +21°C° 0.1 mm 1 mps 589 mmHg 79%
    21:00 +21°C° 0.1 mm 1 mps 589 mmHg 80%
    22:00 +18°C° 0.1 mm 0 mps 590 mmHg 82%
    23:00 +20°C° 0.4 mm 1 mps 589 mmHg 84%

    27 August, Tuesday

    Time Temperature Precipitation Wind Pressure Humidity
    00:00 +19°C° 0.4 mm 1 mps 589 mmHg 86%
    01:00 +19°C° 0.4 mm 1 mps 589 mmHg 88%
    02:00 +18°C° 0 mm 1 mps 588 mmHg 88%
    03:00 +18°C° 0 mm 1 mps 588 mmHg 89%
    04:00 +18°C° 0 mm 1 mps 588 mmHg 90%
    05:00 +19°C° 0.1 mm 1 mps 589 mmHg 88%
    06:00 +19°C° 0.1 mm 1 mps 589 mmHg 87%
    07:00 +20°C° 0.1 mm 1 mps 590 mmHg 86%
    08:00 +22°C° 0.2 mm 1 mps 591 mmHg 77%
    09:00 +24°C° 0.2 mm 2 mps 591 mmHg 69%
    10:00 +26°C° 0.2 mm 2 mps 592 mmHg 60%
    11:00 +26°C° 0.5 mm 2 mps 592 mmHg 60%
    12:00 +26°C° 0.5 mm 3 mps 592 mmHg 60%
    13:00 +26°C° 0.5 mm 3 mps 591 mmHg 60%
    14:00 +26°C° 0.8 mm 3 mps 591 mmHg 63%
    15:00 +25°C° 0.8 mm 3 mps 590 mmHg 66%
    16:00 +25°C° 0.8 mm 3 mps 590 mmHg 69%
    17:00 +23°C° 0.7 mm 2 mps 590 mmHg 75%
    18:00 +22°C° 0.7 mm 1 mps 589 mmHg 81%
    19:00 +20°C° 0.7 mm 1 mps 589 mmHg 87%
    20:00 +20°C° 1.3 mm 1 mps 590 mmHg 89%
    21:00 +20°C° 1.3 mm 1 mps 590 mmHg 90%
    22:00 +20°C° 1.3 mm 1 mps 591 mmHg 92%
    23:00 +19°C° 1.3 mm 1 mps 591 mmHg 92%
    Show more